Dewpoint
51 50 52 39 29 30 29 32 35 35 35 37 36 31 30 29 30 31 25 27 34 38 43 46 53 54 55 57 58 59 60 61 64 66 67 69 70 71 71 70 70 70 70 71 71 71 70 70 70
43 51 40 33 24 24 29 32 31 32 34 36 35 33 32 28 27 24 24 30 38 39 42 45 52 53 54 56 57 57 58 59 61 63 65 67 69 70 71 70 70 70 70 71 71 71 70 70 69
47 46 32 30 26 26 29 32 30 25 19 29 36 35 29 25 21 19 24 37 40 39 40 45 51 53 54 54 55 56 57 58 59 60 63 65 67 69 70 71 70 71 71 70 71 71 70 70 69
38 35 34 27 24 24 28 29 30 21 16 17 35 27 19 23 21 20 34 39 39 39 38 43 49 50 51 53 54 55 56 56 57 58 60 63 64 67 68 69 71 71 71 71 70 71 70 69 69
34 31 26 24 23 22 22 20 24 15 11 18 24 27 17 22 29 36 39 39 37 38 39 38 47 49 50 52 52 53 54 55 56 57 59 61 62 64 65 67 69 70 70 70 71 70 69 68 68
27 26 21 22 23 20 16 15 8 10 14 16 31 24 18 19 33 39 41 40 39 37 37 37 41 45 46 49 50 51 53 53 54 55 57 59 60 62 63 64 66 68 70 70 70 70 69 68 66
22 22 20 23 20 18 15 12 8 6 7 9 23 18 16 20 34 37 36 36 37 37 35 34 37 38 42 45 47 48 50 52 53 55 56 55 56 59 60 61 63 66 68 70 70 70 69 68 66
25 19 13 21 18 14 15 14 10 5 3 6 11 16 14 19 34 34 34 34 34 34 33 32 33 35 35 38 43 45 48 50 52 54 54 54 54 56 57 57 60 63 65 68 70 70 69 68 67
29 22 14 11 13 15 15 9 10 10 6 7 10 11 14 28 31 28 28 30 31 32 32 31 32 32 34 35 37 41 45 47 49 50 52 52 52 50 51 55 58 59 61 65 69 70 69 68 66
22 19 10 14 15 17 14 9 10 7 10 10 16 19 25 26 25 25 26 27 28 28 30 30 31 32 32 32 35 36 38 42 43 46 47 49 50 48 51 54 56 57 58 60 64 69 68 65 62
15 19 15 17 18 19 15 11 10 7 9 9 14 18 24 25 25 26 25 25 26 28 29 30 30 30 32 32 34 35 37 41 43 45 45 46 48 48 51 52 54 54 56 56 58 64 67 62 61
12 14 20 22 18 15 12 15 13 10 8 12 15 19 24 24 25 25 24 24 24 26 27 29 30 29 30 32 32 34 36 40 42 43 43 45 46 47 49 50 52 53 55 55 56 57 60 61 60
10 12 14 16 15 14 15 15 12 15 14 15 14 18 24 25 23 24 24 25 23 24 25 28 29 29 28 28 31 33 35 38 41 41 42 44 44 45 48 50 50 52 54 55 55 56 58 60 60
12 14 15 16 17 18 16 17 18 13 16 15 16 17 23 22 22 23 23 22 21 22 23 26 29 29 28 29 30 32 35 37 39 39 41 42 44 43 44 46 48 50 52 54 54 54 57 61 59
16 12 14 15 17 18 15 12 13 15 17 17 16 16 21 21 22 22 22 21 20 21 23 24 26 28 27 28 30 32 34 35 36 38 39 41 40 40 42 44 47 47 49 51 53 54 55 58 59
15 18 16 16 18 20 15 15 13 14 15 15 17 17 19 20 20 21 23 22 20 20 21 24 24 27 27 27 29 30 32 34 36 37 38 37 37 38 40 43 43 45 49 50 52 53 53 54 57
15 15 15 13 19 18 13 14 14 17 16 15 15 16 18 18 19 20 22 21 20 19 20 21 24 24 26 27 28 29 30 32 34 36 37 36 36 37 38 41 42 44 46 48 49 51 53 53 54
11 12 12 8 14 17 14 13 14 14 16 16 15 14 17 17 18 18 19 19 19 19 19 21 23 23 25 27 27 28 28 30 32 33 34 34 35 36 38 39 41 44 45 45 48 49 52 53 54
13 8 5 6 10 13 13 13 13 15 16 15 17 16 15 17 18 17 18 17 18 18 18 19 21 22 25 24 25 25 25 28 28 30 32 32 34 35 36 37 39 40 41 42 44 47 49 52 53
5 5 3 9 11 8 9 9 10 11 13 14 16 17 15 17 16 16 16 16 17 17 17 19 21 22 24 24 25 26 26 27 28 29 30 31 32 34 34 35 35 37 39 40 41 44 45 51 52
8 10 10 11 9 9 10 14 13 15 12 12 15 18 17 17 17 15 14 15 16 16 16 19 20 22 22 23 24 25 26 26 25 26 27 29 30 32 33 33 34 36 38 38 39 40 41 42 48
11 11 12 9 10 13 10 16 14 12 14 12 11 15 17 17 17 16 15 14 15 15 17 19 21 21 21 22 22 21 22 22 23 25 26 28 29 30 32 32 33 33 35 36 37 38 40 41 42
15 13 11 9 7 8 9 9 13 10 13 15 15 12 17 17 17 17 16 14 16 16 17 19 20 21 21 21 22 22 21 22 23 23 23 25 27 29 29 31 31 31 32 33 35 37 38 40 41
16 16 15 13 12 8 10 12 15 15 16 15 13 13 17 19 19 20 20 19 18 17 18 19 20 21 21 20 21 20 19 20 20 21 22 23 25 27 27 27 28 30 30 31 33 35 36 37 39
10 12 10 11 6 14 11 7 16 17 17 15 15 14 17 21 21 21 20 20 20 20 20 19 20 20 20 19 20 20 20 20 20 21 21 22 23 24 25 25 26 27 28 29 30 33 35 36 37
5 11 16 7 7 12 11 9 16 18 17 20 21 18 19 20 21 21 21 21 21 21 22 21 21 20 20 20 20 20 20 21 21 21 21 21 23 23 23 24 24 25 26 27 29 31 33 35 36
10 7 14 8 3 7 10 12 15 17 17 16 19 19 19 19 21 21 21 21 21 20 21 21 21 20 21 20 21 19 19 19 20 20 20 21 22 19 21 23 23 24 24 25 27 29 30 32 34
13 14 9 8 4 3 5 5 12 15 17 17 16 19 20 19 21 22 22 21 21 20 20 19 20 21 21 21 20 19 19 19 20 20 19 19 19 21 21 21 22 22 23 24 25 26 28 28 31
11 8 3 8 11 7 2 10 17 17 19 19 21 21 20 21 21 22 23 23 22 18 18 19 18 18 21 21 20 19 19 19 19 19 19 19 19 20 20 20 20 20 21 22 23 24 25 26 27
9 11 10 14 6 2 6 11 21 20 20 22 23 22 20 20 20 21 22 21 20 20 18 18 18 17 19 20 19 20 18 18 18 18 17 18 18 19 19 19 19 19 20 21 21 22 23 24 26
Lifted_Index
9 9 8 6 5 3 3 5 6 7 8 9 8 7 6 6 7 9 13 16 17 17 16 15 14 13 13 12 11 10 9 7 5 3 1 1 0 -1 -1 -1 -1 -1 -1 -1 -2 -2 -2 -0 1
9 9 8 6 4 3 3 5 7 8 9 9 9 8 7 8 8 10 13 16 17 17 17 16 15 14 13 12 12 11 10 9 7 5 3 2 1 0 -1 -1 -1 -1 -0 -1 -1 -2 -1 -0 1
10 9 8 6 4 3 4 6 8 9 10 10 9 9 9 10 10 12 14 16 17 18 18 17 15 14 14 13 13 12 12 11 10 8 5 3 2 1 0 -0 -1 -0 0 0 -1 -1 -0 1 1
10 9 7 4 3 4 5 7 9 10 10 11 10 10 11 12 13 14 16 17 17 18 19 18 17 16 15 15 14 14 13 12 12 11 9 6 3 2 1 1 0 -0 0 1 0 0 1 1 2
9 8 5 3 3 5 7 9 10 10 10 11 10 10 11 13 15 16 17 17 18 19 20 20 19 18 17 16 16 15 14 14 13 12 11 9 6 4 2 2 1 1 1 1 1 1 2 2 3
7 6 4 3 3 5 7 9 10 10 10 10 10 10 11 14 16 17 18 19 19 20 21 21 21 20 20 19 18 17 16 15 14 14 13 11 9 6 4 3 2 1 1 1 2 2 2 3 4
6 5 4 3 3 5 7 10 10 10 10 11 11 10 11 14 17 18 19 19 20 20 21 21 22 22 21 21 20 19 18 17 16 15 14 13 11 8 5 3 3 2 2 2 2 2 3 4 4
7 5 4 3 3 5 7 10 11 11 11 12 12 11 12 15 17 18 19 19 20 20 21 21 22 22 22 22 22 21 20 19 18 17 16 15 14 10 7 5 4 3 2 2 2 3 3 4 4
7 5 4 4 4 6 8 9 11 11 11 12 13 13 14 16 18 18 18 19 19 20 20 21 21 21 21 22 22 22 22 21 19 18 18 17 16 13 10 7 5 4 3 3 2 3 4 5 5
6 5 5 6 6 7 8 9 10 10 10 11 12 13 15 17 17 17 17 18 18 19 20 20 21 21 21 21 21 22 22 21 20 19 19 18 17 15 12 9 6 5 4 3 3 3 4 5 6
6 5 6 7 8 8 9 9 10 9 9 10 12 13 15 16 16 17 17 17 18 18 19 20 21 21 21 21 21 21 22 22 22 21 20 20 19 17 14 11 8 6 5 4 3 3 4 4 5
6 6 7 8 9 9 9 9 9 9 10 12 13 14 14 15 16 16 17 18 18 19 19 20 21 21 21 21 21 21 22 22 22 23 22 22 21 19 16 13 10 8 7 5 4 4 3 4 4
6 7 8 9 9 9 9 9 9 10 11 13 14 14 14 15 16 16 17 18 19 19 20 20 21 21 21 21 21 22 22 22 23 23 23 23 22 21 19 15 12 11 10 8 6 4 4 3 4
7 7 7 8 9 9 8 8 9 10 11 12 13 13 14 15 16 16 17 18 19 19 20 21 21 22 22 22 22 22 22 23 23 23 23 23 23 22 21 18 15 13 11 10 8 6 4 4 4
7 6 7 7 8 8 8 7 8 10 11 11 11 12 13 15 15 16 17 18 19 20 20 21 22 22 23 23 23 23 23 23 23 23 24 24 23 23 22 20 17 15 13 11 9 7 5 4 4
6 5 5 6 7 8 7 6 7 9 10 10 10 11 12 14 15 16 17 18 19 20 20 21 22 23 23 23 24 24 24 24 24 23 23 24 24 23 23 21 19 17 15 12 10 9 7 5 5
5 4 4 5 7 7 7 6 7 9 9 9 9 10 11 13 14 16 18 19 20 20 21 21 22 23 23 24 24 24 24 24 24 24 23 23 23 23 23 22 21 19 17 14 11 9 8 6 5
4 4 4 5 6 6 6 6 7 8 8 8 9 9 10 12 14 16 18 19 20 21 21 21 22 22 23 24 24 24 24 24 24 24 23 23 23 23 23 22 22 21 19 15 12 10 9 7 6
5 4 4 5 6 6 5 5 6 7 8 8 8 9 9 11 14 16 17 18 20 20 21 21 21 22 23 23 23 23 23 24 24 24 24 23 23 23 22 22 22 21 20 17 13 10 9 8 7
5 5 5 5 6 6 5 5 5 6 7 7 8 8 9 10 13 15 16 18 19 20 20 20 21 22 22 23 23 23 23 24 24 24 24 23 23 23 22 22 21 21 20 17 14 11 9 9 8
5 5 5 5 5 5 4 4 4 5 6 7 7 8 9 10 12 14 16 17 19 19 19 20 20 21 22 23 23 23 23 23 23 24 24 24 23 23 23 22 21 21 20 18 15 12 10 9 9
5 5 5 5 4 4 4 3 3 5 5 6 7 8 9 10 12 13 15 17 18 19 19 19 20 20 21 22 23 22 22 22 23 23 24 24 24 24 23 23 22 21 20 19 17 14 12 10 10
5 5 5 5 4 4 3 3 3 4 5 6 7 8 9 10 12 13 15 17 18 18 18 19 19 20 21 22 22 21 21 21 22 23 24 24 24 24 24 24 23 22 21 19 18 16 15 13 12
6 5 4 4 3 3 3 3 3 4 5 6 7 8 9 10 11 13 15 16 16 17 17 18 19 19 20 20 21 21 21 21 22 22 23 23 24 24 24 24 24 23 22 21 19 18 18 16 14
6 5 3 2 1 2 3 4 4 5 6 7 8 8 9 10 11 12 13 14 15 15 16 17 18 18 19 19 20 20 21 21 21 21 22 22 23 23 24 25 25 24 23 22 21 20 20 18 17
5 5 3 2 1 2 4 4 5 7 7 7 8 8 9 9 10 11 12 13 14 14 15 15 16 17 18 19 19 19 20 21 21 21 22 22 22 23 24 25 25 25 25 24 23 21 21 20 19
5 5 4 3 2 2 3 4 6 7 7 7 7 8 8 9 10 11 12 13 13 14 14 15 15 16 18 19 19 19 20 20 21 21 22 22 22 23 23 24 24 25 25 25 24 23 22 21 20
6 5 5 4 3 2 2 4 5 6 7 6 7 7 8 9 9 10 11 12 13 14 15 15 15 16 17 18 19 19 19 20 21 21 21 22 22 22 23 23 24 24 24 25 25 24 23 22 21
6 6 5 4 3 2 2 3 6 7 7 6 6 7 7 8 9 10 10 11 12 13 14 15 15 15 16 17 18 19 19 20 20 20 21 21 22 22 22 23 23 23 24 24 24 24 24 23 22
7 6 6 4 3 3 3 4 6 8 7 6 6 7 7 8 9 9 10 11 12 13 14 14 14 15 16 17 18 18 19 19 19 20 20 21 21 22 22 23 23 23 23 23 23 24 24 23 23